Weather in Gukovo

Russia / Rostov Oblast     47°59′00″N   39°56′36″E
temp.,
°C
wind,
m/s
gust,
m/s
humid.,
%
clouds,
%
prec.,
mm/h
press.,
hPa
HPBL,
m
22 may, sun
sun2200:00+12sw10189589 5.1 1005611
03:00+12sw101889100 6.9 1003622
06:00+12sw91796100 2.2 1002568
09:00+14wsw81487100 2.2 1001754
12:00+17wsw9147599 0.1 10001335
15:00+15wsw81280100 1.8 10001236
18:00+15w61075100 0.3 999685
21:00+10wsw4109057 0.8 1000198
23 may, mon
mon2300:00+9w511935 0.3 1000347
03:00+8w5119426 0.3 1001364
06:00+9nw699299 0.0 1002721
09:00+10n7979100 0.1 10041034
12:00+12nne5767100 0.0 10051277
15:00+12n4565100 0.1 1006960
18:00+12n4570100 0.2 1006668
21:00+8nnw1176100 0.3 100810
24 may, tue
tue2400:00+9n2372100 0.0 100962
03:00+8nne247485 0.0 101085
06:00+7nne227653 0.0 101187
09:00+12n346013 0.0 1012829
12:00+14nnw4448100 0.1 10122114
15:00+13w3457100 0.1 1012994
18:00+13wnw366388 0.0 1013519
21:00+10wnw226559 0.0 101531
25 may, wed
wed2500:00+8w357282 0.0 101572
03:00+9w496978 0.0 1016209
06:00+9w37806 0.0 1017185
09:00+15wnw67635 0.0 10171045
12:00+17nw6852100 0.4 10171859
15:00+16nw586292 0.6 1018657
18:00+15wnw610737 0.3 1019680
21:00+12wnw356988 0.4 101985
26 may, thu
thu2600:00+11wsw478632 0.0 1020125
03:00+10w358026 0.0 102082
06:00+12wsw387920 0.0 1020166
09:00+18wsw575849 0.0 1019582
12:00+20wsw664995 0.0 10192192
15:00+20sw885121 0.0 10172126
18:00+17sw81263100 0.0 1016972
21:00+13wsw61377100 0.1 1016752